Wind_Speed
48 44 39 39 43 48 49 50 52 52 52 47 44 37 33 33 30 34 33 28 26 25
49 46 40 45 41 46 47 50 53 50 45 49 44 47 33 35 34 34 32 31 28 25
46 48 45 42 50 43 45 45 49 48 50 48 49 47 44 39 37 35 33 31 31 28
48 53 47 47 45 50 44 46 47 50 50 46 47 47 49 45 43 39 36 34 32 29
49 55 50 48 43 48 47 46 44 47 49 49 47 46 46 47 43 41 39 37 34 32
49 56 59 50 43 47 49 48 45 45 50 52 50 48 46 46 44 39 39 39 37 36
51 47 54 55 52 42 47 48 48 44 48 50 49 47 47 46 42 41 38 37 37 36
41 50 54 57 55 47 44 45 47 48 45 44 45 46 45 43 42 41 40 39 39 38
38 42 55 48 56 51 45 45 43 48 46 45 44 41 44 42 41 40 40 42 41 37
25 36 40 35 43 50 51 45 48 48 49 48 45 45 42 41 40 40 41 40 39 40
12 22 33 41 35 45 50 48 48 48 48 48 47 46 40 36 38 37 35 37 35 34
18 6 12 29 30 30 47 49 46 49 47 45 43 42 43 37 37 35 36 36 33 30
30 20 11 15 28 33 32 41 44 44 46 46 44 41 40 34 36 38 36 38 33 27
43 33 22 10 20 27 33 42 43 44 43 46 46 40 38 34 36 37 38 40 35 28
Wind_Direction
211 204 203 198 198 195 192 196 198 201 205 202 202 203 214 213 222 213 212 214 212 214
212 208 207 202 198 205 207 211 204 202 204 207 204 201 210 214 215 215 216 215 219 221
212 206 208 204 201 203 207 208 211 209 204 210 210 210 206 211 218 221 222 221 225 230
214 209 207 204 206 201 202 202 208 208 206 209 215 215 213 217 219 224 226 226 228 232
217 207 204 203 209 204 201 201 205 208 212 210 213 211 216 216 221 222 225 228 231 232
207 204 205 202 202 207 204 205 203 209 208 208 211 210 214 222 220 221 225 230 231 235
218 213 215 208 201 207 204 204 206 208 210 214 212 213 214 217 220 220 224 232 235 236
220 224 220 218 207 203 207 207 208 207 209 211 216 212 213 214 218 222 225 228 234 240
224 213 210 212 211 206 204 206 208 210 207 213 212 215 214 216 218 225 227 226 231 236
186 229 211 207 213 207 205 204 207 211 210 206 208 212 214 217 220 224 228 232 232 235
168 234 232 209 205 212 206 205 207 209 213 209 208 209 209 214 221 229 230 233 237 238
34 155 187 198 208 211 212 211 213 213 210 209 210 211 209 205 216 226 234 239 237 241
36 38 82 169 193 205 218 219 216 213 212 211 208 207 207 225 220 218 235 238 244 244
35 45 49 89 192 217 211 218 219 218 214 216 215 219 225 219 218 226 235 232 234 247
Height
1436 1442 1446 1450 1454 1459 1466 1473 1480 1487 1492 1498 1504 1510 1514 1518 1522 1525 1528 1532 1536 1539
1424 1434 1439 1444 1449 1453 1460 1467 1473 1481 1486 1491 1497 1505 1508 1511 1516 1520 1523 1527 1531 1534
1412 1423 1433 1437 1442 1447 1453 1459 1466 1473 1479 1484 1490 1496 1502 1505 1510 1515 1518 1522 1525 1527
1403 1412 1422 1428 1434 1441 1447 1452 1459 1466 1472 1477 1482 1488 1495 1499 1504 1508 1512 1515 1519 1521
1394 1403 1412 1419 1426 1432 1440 1447 1452 1458 1463 1470 1476 1481 1487 1493 1496 1500 1504 1508 1512 1516
1387 1392 1401 1409 1418 1425 1431 1439 1446 1451 1456 1462 1468 1474 1479 1483 1489 1493 1497 1501 1505 1508
1381 1384 1395 1403 1410 1416 1423 1430 1438 1445 1450 1455 1461 1466 1471 1477 1482 1487 1491 1494 1497 1501
1373 1376 1385 1395 1400 1407 1413 1422 1430 1438 1443 1450 1454 1459 1464 1470 1475 1479 1484 1488 1491 1494
1371 1376 1366 1384 1391 1397 1404 1412 1423 1429 1434 1440 1447 1453 1457 1462 1467 1471 1476 1479 1484 1487
1366 1372 1347 1368 1386 1388 1396 1401 1411 1421 1425 1429 1435 1443 1450 1457 1461 1465 1469 1473 1477 1479
1359 1365 1370 1368 1371 1383 1392 1397 1402 1410 1419 1424 1426 1433 1440 1448 1454 1460 1464 1467 1471 1474
1367 1363 1354 1362 1369 1378 1388 1393 1397 1403 1410 1417 1421 1428 1431 1435 1441 1450 1457 1462 1465 1467
1372 1367 1361 1364 1370 1373 1383 1389 1394 1398 1404 1408 1414 1420 1427 1430 1432 1431 1443 1453 1458 1460
1384 1374 1368 1366 1366 1370 1377 1381 1387 1392 1398 1404 1408 1414 1419 1421 1424 1427 1433 1442 1445 1451